Location: Central Falls
(41.8900°N, 71.3929°W)
Time: 04:38:29
(UTC+00:00)

Vanguard 2 Rocket - Pass Details

Date: 03 December 2023
Orbit: 555 x 3309 km, 32.9° (Epoch: 01 March)

Event Time Altitude Azimuth Distance (km) Brightness Sun altitude
Rises 03:21:22 0° 277° (W) 6,738 11.6 -64.9°
Reaches altitude 10° 03:29:24 10° 258° (WSW) 5,131 10.8 -65.8°
Enters shadow 03:30:54 12° 252° (WSW) 4,870 10.6 -66.0°
Maximum altitude 03:35:22 14° 233° (SW) 4,263 - -66.5°
Drops below altitude 10° 03:40:18 10° 206° (SSW) 4,055 - -67.1°
Sets 03:45:12 0° 182° (S) 4,474 - -67.6°
